EW5205 Weather Reports


Display with metric or nautical units.
time (UTC)temp
F
wind
direction
speed
MPH
gust
MPH
rain 1hr
in
rain 24hr
in
rain mn
in
humidity
%
barometer
mb
20260905103047 63 88 0.0 0.0 0.00 0.00 0.00 64 1021.4
20260905101552 64 86 0.0 0.0 0.00 0.00 0.00 64 1021.5
20260905100041 65 87 0.0 0.0 0.00 0.00 0.00 65 1021.3
20260905094538 66 66 0.0 0.0 0.00 0.00 0.00 66 1021.2
20260905093037 66 76 0.0 0.0 0.00 0.00 0.00 66 1021.1
20260905091538 66 64 0.0 0.0 0.00 0.00 0.00 63 1021.1
20260905090037 66 60 0.0 0.0 0.00 0.00 0.00 63 1021.1
20260905084556 66 26 0.0 0.0 0.00 0.00 0.00 63 1021.1
20260905083032 66 48 0.0 0.0 0.00 0.00 0.00 66 1021.1
20260905081529 66 338 0.0 0.0 0.00 0.00 0.00 61 1021.3
20260905080027 66 13 0.0 0.0 0.00 0.00 0.00 63 1021.5
20260905074528 67 73 0.0 0.0 0.00 0.00 0.00 63 1021.4
20260905073025 68 92 0.0 0.0 0.00 0.00 0.00 65 1021.5
20260905071525 68 73 0.0 0.0 0.00 0.00 0.00 65 1021.6
20260905070023 68 93 0.0 0.0 0.00 0.00 0.00 65 1021.6
20260905064528 68 91 0.0 0.0 0.00 0.00 0.00 65 1021.6
20260905063021 68 89 0.0 0.0 0.00 0.00 0.00 65 1021.5
20260905061517 66 86 0.0 0.0 0.00 0.00 0.00 65 1021.6
20260905060013 66 53 0.0 0.0 0.00 0.00 0.00 65 1021.6
20260905054513 67 72 0.0 0.0 0.00 0.00 0.00 65 1021.6
20260905053010 66 58 0.0 0.0 0.00 0.00 0.00 65 1021.6
20260905051511 67 351 0.0 0.0 0.00 0.00 0.00 65 1021.6
20260905050006 67 87 0.0 0.0 0.00 0.00 0.00 65 1021.6
20260905044502 69 53 0.0 0.0 0.00 0.00 0.00 65 1021.5
20260905043100 70 113 0.0 0.0 0.00 0.00 0.00 63 1021.5
20260905041558 70 75 0.0 0.0 0.00 0.00 0.00 64 1021.4
20260905040056 71 80 0.0 0.0 0.00 0.00 0.00 63 1021.3
20260905034556 71 121 0.0 0.0 0.00 0.00 0.00 64 1021.3
20260905033057 72 98 0.0 0.0 0.00 0.00 0.00 65 1021.2
20260905031558 72 110 0.0 0.0 0.00 0.00 0.00 65 1021.3
20260905030100 73 110 0.0 0.0 0.00 0.00 0.00 65 1021.1
20260905024625 74 102 0.0 0.0 0.00 0.00 0.00 61 1021.0
20260905023056 75 76 0.0 0.0 0.00 0.00 0.00 57 1021.0
20260905021551 76 66 0.0 0.0 0.00 0.00 0.00 49 1020.7
20260905020052 77 27 0.0 0.0 0.00 0.00 0.00 46 1020.6
20260905014548 78 14 0.0 0.0 0.00 0.00 0.00 45 1020.5
20260905013052 79 9 0.0 6.0 0.00 0.00 0.00 44 1020.4
20260905011556 79 14 0.0 7.0 0.00 0.00 0.00 49 1020.5
20260905010047 80 110 0.0 1.0 0.00 0.00 0.00 47 1020.3
20260905004557 80 104 0.0 1.0 0.00 0.00 0.00 47 1020.1
20260905003047 81 132 0.0 0.0 0.00 0.00 0.00 43 1020.1
20260905001546 80 132 0.0 9.0 0.00 0.00 0.00 46 1020.0
20260905000045 81 114 1.0 8.0 0.00 0.00 0.00 44 1019.9
20260904234550 82 107 2.0 8.0 0.00 0.00 0.00 42 1019.7
20260904233056 82 92 0.0 11.0 0.00 0.00 0.00 41 1019.7
20260904231544 83 62 1.0 13.0 0.00 0.00 0.00 41 1019.7
20260904224509 83 88 1.0 10.0 0.00 0.00 0.00 39 1019.7
20260904223112 83 75 5.0 11.0 0.00 0.00 0.00 40 1019.7
20260904221607 82 91 10.0 18.0 0.00 0.00 0.00 43 1019.9
20260904214541 79 93 13.0 18.0 0.00 0.00 0.00 48 1020.2
20260904213131 79 79 11.0 18.0 0.00 0.00 0.00 48 1020.4
20260904211553 77 91 15.0 21.0 0.00 0.00 0.00 51 1020.9
20260904204551 78 92 18.0 26.0 0.00 0.00 0.00 44 1021.4
20260904203017 80 128 16.0 29.0 0.00 0.00 0.00 33 1021.6
20260904201607 85 131 0.0 8.0 0.00 0.00 0.00 36 1021.3
20260904200022 85 154 0.0 11.0 0.00 0.00 0.00 36 1021.1
20260904194602 85 265 2.0 8.0 0.00 0.00 0.00 36 1021.2
20260904193018 85 264 0.0 9.0 0.00 0.00 0.00 37 1021.4
20260904191608 85 105 0.0 7.0 0.00 0.00 0.00 36 1021.5
20260904184600 85 252 0.0 18.0 0.00 0.00 0.00 36 1021.9
20260904183007 83 247 0.0 6.0 0.00 0.00 0.00 39 1022.3
20260904181603 83 253 0.0 9.0 0.00 0.00 0.00 39 1022.5
20260904174546 81 249 2.0 7.0 0.00 0.00 0.00 39 1023.0
20260904173007 82 278 1.0 8.0 0.00 0.00 0.00 41 1023.2
20260904171601 82 276 0.0 8.0 0.00 0.00 0.00 42 1023.2
20260904164608 81 259 0.0 5.0 0.00 0.00 0.00 44 1023.3
20260904163031 80 211 1.0 6.0 0.00 0.00 0.00 46 1023.2
20260904161526 79 283 0.0 4.0 0.00 0.00 0.00 48 1023.2
20260904160034 78 247 2.0 7.0 0.00 0.00 0.00 50 1023.3
20260904154517 77 222 1.0 9.0 0.00 0.00 0.00 51 1023.4
20260904153014 76 222 0.0 8.0 0.00 0.00 0.00 54 1023.5
20260904151515 75 252 1.0 6.0 0.00 0.00 0.00 54 1023.3
20260904150015 75 265 0.0 7.0 0.00 0.00 0.00 54 1023.2
20260904144511 75 229 2.0 9.0 0.00 0.00 0.00 55 1023.2
20260904143003 74 194 5.0 8.0 0.00 0.00 0.00 56 1023.2
20260904141625 74 240 2.0 10.0 0.00 0.00 0.00 57 1023.2
20260904134523 73 208 4.0 11.0 0.00 0.00 0.00 59 1022.8
20260904133122 72 228 0.0 15.0 0.00 0.00 0.00 59 1022.7
20260904131632 72 207 0.0 8.0 0.00 0.00 0.00 59 1022.3
20260904130056 72 235 0.0 6.0 0.00 0.00 0.00 60 1022.0
20260904124557 72 235 1.0 8.0 0.00 0.00 0.00 60 1021.8
20260904123105 72 215 0.0 5.0 0.00 0.00 0.00 60 1021.7
20260904121550 72 207 0.0 7.0 0.00 0.00 0.00 59 1021.5
20260904120048 72 188 0.0 13.0 0.00 0.00 0.00 59 1021.5
20260904114547 72 216 1.0 10.0 0.00 0.00 0.00 59 1021.4
20260904113046 72 232 1.0 10.0 0.00 0.00 0.00 58 1021.3
20260904111551 73 219 8.0 13.0 0.00 0.00 0.00 58 1021.0
20260904110042 73 193 2.0 7.0 0.00 0.00 0.00 56 1020.9
20260904104539 72 252 1.0 9.0 0.00 0.00 0.00 56 1020.9